FALCON 9 DEB (48607 NORAD) Tracking and Keplerian Element Data

This shows tracking and keplerian element data for the satellite.

Feedback or suggestion? Click here.




ElementValue
Catalog48607
NameFALCON 9 DEB
Epoch Orbit1181
Epoch Day214.77671626
Epoch Year2021
RAAN125.9345
Inclination53.0394
Eccentricity0.0013701
Argument of Perigee171.8723
Mean Anonmoly188.2486
Mean Motion14.9744499
Decay Rate8.3E-07
L11 48607U 21041BG 21214.77671626 .00000083 00000-0 29412-4 0 9998
L22 48607 53.0394 125.9345 0013701 171.8723 188.2486 14.97444990 11810

Live tracking and technical data element details for FALCON 9 DEB (NORAD 48607). FALCON 9 DEB can be tracked NOW for your location showing map with azimuth and elevation plus other details from your city location.

Track the satellite on the map from your city or location and see movement details for azimuth, elevation, latitude, longitude, range, height, and movement on the map or in text.







IsCatalogInMostPopularTable: catalog: 48607, numindb: 18
Update: records affected: 1



GetName: 48607 FALCON 9 DEB

Hit Count: updated at: Tue, 03 Aug 2021 23:18:57 GMT